Location: Boulin
(43.2500°N, 0.1333°E)
Time: 00:47:24
(UTC+00:00)

NOSS 2-3 (C) - Pass Details

Date: 11 December 2025
Orbit: 458 x 1718 km, 63.3° (Epoch: 19 January)

Event Time Altitude Azimuth Distance (km) Brightness Sun altitude
Rises 18:19:26 0° 231° (SW) 2,516 7.8 -20.2°
Reaches altitude 10° 18:21:36 10° 238° (WSW) 1,604 6.7 -20.6°
Maximum altitude 18:24:54 43° 311° (NW) 661 3.9 -21.2°
Enters shadow 18:25:39 37° 347° (NNW) 745 3.9 -21.3°
